Погода в Кандалакше

Погода в Кандалакше : погода сейчас, прогноз погоды и архив. Всё, что Вы хотите узнать о погоде в Кандалакше!

Хотите узнать прогноз погоды в Кандалакше? Тогда Вам сюда: Погода в Кандалакше

Поиск расширенной информации на нашем сайте:

Другие новости

Новости СМИ2

Главная страница сайта

Новости сайта

03.07.2017

Напоминаем, что на нашем специализированном сайте Метеоцентр.Азия вы можете получить высокодетализированные автоматические прогнозы погоды по пунктам России, СНГ и мира в авиационном формате (включающие направление и скорость ветра, видимость, явления погоды, количество и форму облачности, нижнюю и верхнюю границу облачности).

Рекомендуем: Мы предлагаем Вам cкачать программу исправления ошибок.

Погода в Кандалакше - сегодня

Время (UTC), дата Ветер
(°,м/с) 
Видим.   Явления Облачность Т
(°С)
Тd
(°С)
f(%) Тe
(°С)
Pmin
(гПа)
dP
(гПа)
Po
(мм)
O2
(г/м3)
Тmin Tmax R s Состояние
почвы
09 09.10.18 170 (Ю) 3-5  20000 м    10/10 600 м 
[Sc]
+5.3 +2.8 84 +4  998  -0.3  746  294           
21 09.10.18 170 (Ю) 1-2  10 км    9/9 600 м 
[Sc]
+5.8 +3.5 85 +7  993.6  -0.7  743  293           
09 10.10.18 330 (СЗ) 2-5  20000 м    3/0 верхняя 
[Cc]
+6.4 +0.9 68 +6  999.6  747  294           
21 10.10.18 340 (С) 1-1  10 км    5/5 600 м 
[Sc]
-1.9 -2.1 99 -1  1016.7  3.2  760  309           
00 11.10.18 020 (С) 2-3  10 км    ясно 
-2.6 -2.7 99 -4  1019  2.2  762  310           
09 11.10.18 тихо () -1  10 км    1/0 верхняя 
[Cc]
+4.6 -0.1 72 +5  1024.1  1.5  766  303           
21 11.10.18 310 (СЗ) 1-1  10 км    9/6 1000 м средняя 
[Sc|Ac As]
+0.6 -0.6 92 +1  1023.5  -0.6  765  308           
09 12.10.18 010 (С) 2-3  10 км    3/1 600 м средняя, верхняя 
[Sc|Ac lent|Cc]
+6.1 +2.6 78 +6  1024.4  766  301           
21 12.10.18 010 (С) 2-3  10 км    ясно 
-1.9 -2.2 98 -3  1025.2  -0.3  766  311           
03 13.10.18 160 (Ю) 2-6  10 км  слаб. морось  10/10 300 м 
[St]
+3.8 +2.3 90 +3  1022.9  -1.2  765  304  -2    0.1     
18 13.10.18 160 (Ю) 4-8{10}  10 км  слаб. морось{ливн. осадки}  10/10 200 м 
[St]
+6.1 +5.8 98 +5  1014.9  -2.4  759  298    +6.1     
21 14.10.18 160 (Ю) 2-4  10 км    10/10 300 м 
[St]
+12.2 +11.7 97 +16  1005.6  -0.3  752  288           
00 15.10.18 160 (Ю) 2-4  10 км    ясно 
+10.4 +9.8 96 +12  1004.6  -1.1  751  290           
09 15.10.18 160 (Ю) 2-5  10 км    9/8 300 м кучево-дожд., средняя, верхняя 
[Cb cap|Ac lent|Cc]
+11.9 +8.7 81 +12  1002.3  -0.1  749  288           
21 15.10.18 360 (С) 1-1  10 км    8/3 600 м средняя, верхняя 
[Sc|Ac trans|Cs]
+3.3 +2.9 97 +4  1012.1  0.6  757  301           
03 16.10.18 010 (С) 1-2  10 км  слаб. дождь  10/10 300 м 
[Frnb|Ns]
+3.6 +3.2 97 +4  1010.3  -1.3  755  300  +2.8    0.3     
15 16.10.18 190 (Ю) 1-1  20000 м    ясно 
+2 +1.7 98 +3  1011.8  1.6  756  302         
21 16.10.18 010 (С) 2-2  10 км    ясно 
-1.1 -1.1 100 -2  1014.7  1.4  759  307           
00 17.10.18 330 (СЗ) 1-1  10 км    ясно 
-2.2 -2.2 100 -2  1016.1  1.4  760  309           
03 18.10.18 тихо () -1  4000 м  в посл. час морось{ливн. осадки}  10/10 200 м 
[St]
+4 +4 100 +4  1004.1  -1.2  751  298  +3.5       
21 18.10.18 350 (С) 1-1  10 км    9/9 600 м 
[Sc]
+2.9 +2.9 100 +4  1002.2  -0.2  749  298           
09 19.10.18 330 (СЗ) 2-5  10 км    10/10 600 м 
[Sc]
+3.1 +2.2 94 +3  1004.5  2.1  751  299           
21 19.10.18 360 (С) 1-3  10 км    6/3 300 м средняя, верхняя 
[Sc|Ac trans|Cs]
+1.1 +0.2 94 +2  1013.5  1.9  758  304           
09 20.10.18 170 (Ю) 1-2  20000 м    9/9 300 м 
[St]
-1 -1.4 97 1017.8  1.3  761  308           
03 21.10.18 170 (Ю) 3-5  4000 м  в посл. час дождь{морось}  10/10 100 м 
[St]
+2 +2 100 +1  1013.3  -1.8  758  303  -0.6    0.1     
Время (UTC), дата Ветер
(°,м/с) 
Видим.   Явления Облачность Т
(°С)
Тd
(°С)
f(%) Тe
(°С)
Pmin
(гПа)
dP
(гПа)
Po
(мм)
O2
(г/м3)
Тmin Tmax R s Состояние
почвы

Для получения пояснительной информации подведите курсор к названию столбца.

ПОГОДА в Кандалакше - архив

Всё, что Вы хотите узнать о погоде в Кандалакше - удобно и подробно!

Выберите нужную дату (начиная с 1 января 2015* года) и нажмите кнопку "Найти".
Будут отображены архивные сводки погоды по пункту Кандалакша, начиная с указанной даты.


Отображать данные в формате CSV (для использования в таблицах Excel)


Внимание! Наш архив погоды предназначен исключительно для личного некоммерческого использования в познавательных целях. Если Вам необходимы официальные справки о состоянии погоды (для производственных, юридических, коммерческих и т.п. целей), обращайтесь в органы Росгидромета.

*Примечание: данная дата относится к архиву по метеостанциям СССР (Россия, СНГ, Балтия).
Архив по метеостанциям Зарубежной Европы и Азии (кроме Китая) хранится 10 дней, по другим регионам земного шара (Китай, Африка, Америка, Австралия, Океания) - 1 день.

Кандалакша - район местоположения метеостанции


Название, широта, долгота, высота метеостанции:
Кандалакша 67.2°ш. 32.3°д. 25 м над ур. моря [Российская Федерация]

Дополнительная информация

В oтличие oт бoльшинства пoгoдных сайтoв мы публикуем пoдрoбную метеoинфoрмацию в детальнoм прoфессиoнальнoм фoрмате.

Характеристики температуры и влажнoсти вoздуха измеряются на высoте 2 м в тени вдали oт зданий и деревьев.
Скoрoсть ветра измеряется на высoте 10 м (на урoвне рoста челoвека скoрoсть ветра ниже в 1.5-2 раза). Если метеoстанция нахoдится в гoрoде или в лесу, тo скoрoсть ветра занижена на 2-4 м/с пo сравнению с oткрытым местoм. Скoрoсть ветра над акватoриями крупных рек и oзёр, а также на вершинах хoлмoв на 2-5 м/с выше, чем в oбычных услoвиях.
Атмoсфернoе давление в разных тoчках местнoсти мoжет значительнo oтличаться oт давления на метеoстанции, в зависимoсти oт услoвий рельефа (при пoдъёме на 10 м давление пoнижается примернo на 1 мм рт.ст.).